Linn Creek, MO

9:00 AM CST on December 09, 2016 (GMT -0600)
Camdenton

Weather History for KH21 - April, 2013

Change the Weather History Date:

Sunday, April 21, 2013

  Actual Average (KAIZ) Record (KAIZ)
Temperature  
Mean Temperature 57 °F -  
Max Temperature 68 °F 65 °F 84 °F (1999)
Min Temperature 46 °F 45 °F 32 °F (2012)
Degree Days  
Heating Degree Days 8    
Growing Degree Days 7 (Base 50)    
Moisture  
Dew Point 35 °F    
Average Humidity 45    
Maximum Humidity 66    
Minimum Humidity 28    
Precipitation  
Precipitation 0.00 in - - ()
Sea Level Pressure  
Sea Level Pressure 30.25 in    
Wind  
Wind Speed 10 mph (SE)    
Max Wind Speed 21 mph    
Max Gust Speed 26 mph    
Visibility 10 miles    
Events      
Averages and records for this station are not official NWS values.
T = Trace of Precipitation, MM = Missing Value Source: NWS Daily Summary

Daily Weather History Graph

Daily Weather History Graph

Search for Another Location

Airport or City:

Trip Planner

Search our weather history database for the weather conditions in past years. The results will help you decide how hot, cold, wet, or windy it might be!

Date:

Astronomy

Apr. 21, 2013 Rise Set
Actual Time 6:26 AM CDT 7:52 PM CDT
Civil Twilight 5:59 AM CDT 8:20 PM CDT
Nautical Twilight 5:26 AM CDT 8:53 PM CDT
Astronomical Twilight 4:51 AM CDT 9:28 PM CDT
Moon 3:42 PM CDT (4/21) 3:44 AM CDT (4/21)
Length of Visible Light 14h 20m
Length of Day
13h 25m
Waxing Gibbous, 80% of the Moon is Illuminated
Apr 21
Waxing Gibbous
Apr 25
Full
May 2
Last Quarter
May 9
New
May 17
First Quarter

Hourly Weather History & Observations

Time (CDT) Temp. Windchill Dew Point Humidity Pressure Visibility Wind Dir Wind Speed Gust Speed Precip Events Conditions
12:15 AM 46.4 °F 43.5 °F 32.0 °F 57% 30.24 in 10.0 mi East 5.8 mph - N/A   Clear
12:35 AM 46.4 °F 42.9 °F 32.0 °F 57% 30.24 in 10.0 mi East 6.9 mph - N/A   Clear
12:55 AM 46.4 °F 43.5 °F 32.0 °F 57% 30.24 in 10.0 mi East 5.8 mph - N/A   Clear
1:15 AM 46.4 °F 42.4 °F 32.0 °F 57% 30.24 in 10.0 mi East 8.1 mph - N/A   Clear
1:35 AM 46.4 °F 42.4 °F 32.0 °F 57% 30.24 in 10.0 mi ESE 8.1 mph - N/A   Clear
4:15 AM 46.4 °F 41.9 °F 35.6 °F 66% 30.25 in 10.0 mi ESE 9.2 mph - N/A   Clear
4:35 AM 46.4 °F 42.4 °F 35.6 °F 66% 30.26 in 10.0 mi ESE 8.1 mph - N/A   Clear
4:55 AM 46.4 °F 42.4 °F 33.8 °F 62% 30.26 in 10.0 mi ESE 8.1 mph - N/A   Scattered Clouds
5:15 AM 46.4 °F 42.9 °F 35.6 °F 66% 30.27 in 10.0 mi ESE 6.9 mph - N/A   Mostly Cloudy
5:35 AM 46.4 °F 41.9 °F 35.6 °F 66% 30.27 in 10.0 mi ESE 9.2 mph - N/A   Scattered Clouds
5:55 AM 46.4 °F 42.4 °F 33.8 °F 62% 30.27 in 10.0 mi ESE 8.1 mph - N/A   Scattered Clouds
6:15 AM 46.4 °F 42.4 °F 33.8 °F 62% 30.28 in 10.0 mi ESE 8.1 mph - N/A   Scattered Clouds
6:35 AM 46.4 °F 41.5 °F 33.8 °F 62% 30.29 in 10.0 mi ESE 10.4 mph - N/A   Scattered Clouds
6:55 AM 46.4 °F 41.9 °F 33.8 °F 62% 30.30 in 10.0 mi ESE 9.2 mph - N/A   Scattered Clouds
7:15 AM 46.4 °F 42.4 °F 33.8 °F 62% 30.31 in 10.0 mi ESE 8.1 mph - N/A   Mostly Cloudy
7:35 AM 48.2 °F - 35.6 °F 62% 30.31 in 10.0 mi ESE 12.7 mph - N/A   Mostly Cloudy
7:55 AM 50.0 °F - 33.8 °F 54% 30.32 in 10.0 mi ESE 10.4 mph - N/A   Overcast
8:15 AM 50.0 °F - 35.6 °F 58% 30.33 in 10.0 mi SE 10.4 mph - N/A   Overcast
8:35 AM 50.0 °F - 33.8 °F 54% 30.33 in 10.0 mi SE 12.7 mph 18.4 mph N/A   Mostly Cloudy
8:55 AM 51.8 °F - 33.8 °F 50% 30.33 in 10.0 mi SE 11.5 mph - N/A   Clear
9:15 AM 51.8 °F - 35.6 °F 54% 30.33 in 10.0 mi SE 15.0 mph 18.4 mph N/A   Clear
9:35 AM 53.6 °F - 35.6 °F 51% 30.32 in 10.0 mi ESE 11.5 mph 17.3 mph N/A   Clear
9:55 AM 55.4 °F - 35.6 °F 47% 30.32 in 10.0 mi ESE 13.8 mph - N/A   Clear
10:15 AM 55.4 °F - 35.6 °F 47% 30.32 in 10.0 mi ESE 13.8 mph 17.3 mph N/A   Clear
10:35 AM 57.2 °F - 35.6 °F 44% 30.32 in 10.0 mi SE 12.7 mph 18.4 mph N/A   Clear
10:55 AM 59.0 °F - 35.6 °F 42% 30.32 in 10.0 mi SSE 11.5 mph - N/A   Clear
11:15 AM 59.0 °F - 35.6 °F 42% 30.32 in 10.0 mi SE 13.8 mph 21.9 mph N/A   Clear
11:35 AM 60.8 °F - 37.4 °F 42% 30.31 in 10.0 mi SE 10.4 mph 17.3 mph N/A   Clear
11:55 AM 60.8 °F - 37.4 °F 42% 30.31 in 10.0 mi SE 11.5 mph - N/A   Clear
12:15 PM 62.6 °F - 37.4 °F 39% 30.29 in 10.0 mi SSE 12.7 mph 19.6 mph N/A   Clear
12:35 PM 62.6 °F - 37.4 °F 39% 30.28 in 10.0 mi ESE 15.0 mph 20.7 mph N/A   Clear
12:55 PM 64.4 °F - 35.6 °F 34% 30.27 in 10.0 mi SSE 11.5 mph 19.6 mph N/A   Clear
1:15 PM 64.4 °F - 35.6 °F 34% 30.26 in 10.0 mi SSE 11.5 mph 19.6 mph N/A   Clear
1:35 PM 64.4 °F - 35.6 °F 34% 30.25 in 10.0 mi ESE 16.1 mph 21.9 mph N/A   Clear
1:55 PM 64.4 °F - 35.6 °F 34% 30.24 in 10.0 mi ESE 9.2 mph 17.3 mph N/A   Clear
2:15 PM 66.2 °F - 37.4 °F 35% 30.24 in 10.0 mi ESE 16.1 mph - N/A   Clear
2:35 PM 66.2 °F - 35.6 °F 32% 30.23 in 10.0 mi SE 17.3 mph - N/A   Clear
2:55 PM 66.2 °F - 35.6 °F 32% 30.22 in 10.0 mi ESE 11.5 mph 23.0 mph N/A   Clear
3:15 PM 66.2 °F - 33.8 °F 30% 30.21 in 10.0 mi SE 10.4 mph 25.3 mph N/A   Clear
3:35 PM 68.0 °F - 33.8 °F 28% 30.20 in 10.0 mi ESE 20.7 mph 26.5 mph N/A   Clear
3:55 PM 66.2 °F - 33.8 °F 30% 30.19 in 10.0 mi SE 13.8 mph 23.0 mph N/A   Clear
4:15 PM 66.2 °F - 35.6 °F 32% 30.19 in 10.0 mi ESE 12.7 mph 20.7 mph N/A   Clear
4:35 PM 64.4 °F - 35.6 °F 34% 30.18 in 10.0 mi SSE 11.5 mph 17.3 mph N/A   Scattered Clouds
4:55 PM 66.2 °F - 33.8 °F 30% 30.18 in 10.0 mi ESE 11.5 mph 21.9 mph N/A   Clear
5:15 PM 66.2 °F - 33.8 °F 30% 30.17 in 10.0 mi SE 12.7 mph 23.0 mph N/A   Scattered Clouds
5:35 PM 66.2 °F - 33.8 °F 30% 30.17 in 10.0 mi SE 15.0 mph - N/A   Scattered Clouds
5:55 PM 66.2 °F - 33.8 °F 30% 30.17 in 10.0 mi SE 11.5 mph - N/A   Scattered Clouds
6:15 PM 64.4 °F - 33.8 °F 32% 30.17 in 10.0 mi ESE 15.0 mph 20.7 mph N/A   Clear
6:35 PM 64.4 °F - 33.8 °F 32% 30.17 in 10.0 mi SE 9.2 mph - N/A   Clear
6:55 PM 62.6 °F - 33.8 °F 34% 30.17 in 10.0 mi SE 10.4 mph 16.1 mph N/A   Clear
7:15 PM 62.6 °F - 33.8 °F 34% 30.17 in 10.0 mi SE 10.4 mph - N/A   Clear
7:35 PM 60.8 °F - 33.8 °F 36% 30.18 in 10.0 mi ESE 8.1 mph - N/A   Clear
7:55 PM 59.0 °F - 33.8 °F 39% 30.19 in 10.0 mi SE 6.9 mph - N/A   Clear
8:15 PM 59.0 °F - 33.8 °F 39% 30.20 in 10.0 mi SE 5.8 mph - N/A   Clear
8:35 PM 59.0 °F - 33.8 °F 39% 30.20 in 10.0 mi SE 8.1 mph - N/A   Clear
8:55 PM 57.2 °F - 33.8 °F 41% 30.21 in 10.0 mi SE 8.1 mph - N/A   Clear
9:15 PM 57.2 °F - 33.8 °F 41% 30.21 in 10.0 mi SE 9.2 mph - N/A   Scattered Clouds
9:35 PM 57.2 °F - 33.8 °F 41% 30.22 in 10.0 mi SE 8.1 mph - N/A   Scattered Clouds
9:55 PM 55.4 °F - 33.8 °F 44% 30.22 in 10.0 mi SE 8.1 mph - N/A   Clear
10:15 PM 55.4 °F - 33.8 °F 44% 30.22 in 10.0 mi SE 8.1 mph - N/A   Clear
10:35 PM 55.4 °F - 33.8 °F 44% 30.22 in 10.0 mi SE 8.1 mph - N/A   Clear
10:55 PM 53.6 °F - 33.8 °F 47% 30.22 in 10.0 mi SE 9.2 mph - N/A   Clear
11:15 PM 53.6 °F - 33.8 °F 47% 30.22 in 10.0 mi SE 9.2 mph - N/A   Clear
11:35 PM 53.6 °F - 33.8 °F 47% 30.22 in 10.0 mi SE 9.2 mph - N/A   Clear
11:55 PM 53.6 °F - 35.6 °F 51% 30.22 in 10.0 mi SE 9.2 mph - N/A   Clear